This demonstration page uses our WeatherBlox Daily Observations layout. Learn more.

Left ArrowRight Arrow

39.29038, -76.61219

Hourly Observations for May 19, 2017

Temp ( °F °C ) Dew Point ( °F °C ) Humidity (%) Winds ( mph kmh ) Pressure ( in mb ) Visibility ( mi km ) Precip ( " mm )
12:54 am 00:54 undefined 79 26.1 67 19.4 67 67 undefined N/A 29.94 1014 N/A N/A
1:54 am 01:54 undefined 78 25.6 67 19.4 69 69 undefined N/A 29.92 1013 N/A N/A
2:54 am 02:54 undefined 76 24.4 67 19.4 74 74 undefined N/A 29.91 1013 N/A N/A
3:54 am 03:54 undefined 75 23.9 67 19.4 76 76 undefined N/A 29.93 1014 N/A N/A
4:54 am 04:54 undefined 74 23.3 68 20 82 82 undefined N/A 29.94 1014 N/A N/A
5:54 am 05:54 undefined 74 23.3 68 20 82 82 undefined N/A 29.95 1014 N/A N/A
6:54 am 06:54 undefined 76 24.4 68 20 77 77 undefined N/A 29.98 1015 N/A N/A
7:54 am 07:54 undefined 77 25 68 20 74 74 undefined N/A 29.98 1015 N/A N/A
8:54 am 08:54 undefined 84 28.9 67 19.4 57 57 undefined N/A 29.96 1015 N/A N/A
9:54 am 09:54 undefined 87 30.6 66 18.9 50 50 undefined N/A 29.96 1015 N/A N/A
10:54 am 10:54 undefined 88 31.1 66 18.9 48 48 undefined N/A 29.96 1015 N/A N/A
11:54 am 11:54 undefined 89 31.7 66 18.9 47 47 undefined N/A 29.96 1014 N/A N/A
12:54 pm 12:54 undefined 90 32.2 66 18.9 45 45 undefined N/A 29.95 1014 N/A N/A
1:54 pm 13:54 undefined 92 33.3 67 19.4 44 44 undefined N/A 29.93 1014 N/A N/A
2:54 pm 14:54 undefined 91 32.8 67 19.4 45 45 undefined N/A 29.92 1013 N/A N/A
3:54 pm 15:54 undefined 93 33.9 66 18.9 41 41 undefined N/A 29.90 1012 N/A N/A
4:54 pm 16:54 undefined 84 28.9 65 18.3 53 53 undefined N/A 29.93 1013 N/A N/A
5:54 pm 17:54 undefined 83 28.3 68 20 61 61 undefined N/A 29.91 1013 N/A 0.02 0.51
6:54 pm 18:54 undefined 81 27.2 66 18.9 61 61 undefined N/A 29.91 1013 N/A N/A
7:54 pm 19:54 undefined 75 23.9 66 18.9 74 74 undefined N/A 29.98 1015 N/A N/A
8:54 pm 20:54 undefined 74 23.3 64 17.8 71 71 undefined N/A 29.96 1015 N/A N/A
9:54 pm 21:54 undefined 75 23.9 65 18.3 71 71 undefined N/A 29.98 1015 N/A N/A
10:54 pm 22:54 undefined 77 25 66 18.9 69 69 undefined N/A 30.03 1017 N/A N/A
11:54 pm 23:54 undefined 71 21.7 66 18.9 84 84 undefined N/A 30.00 1016 N/A 0.41 10.41

Powered by AerisWeather